Location: Paris
(48.6709°N, 2.3750°E)
Time: 09:28:37
(UTC+02:00)

LO-87 - Pass Details

Date: 01 July 2022
Orbit: 450 x 466 km, 97.4° (Epoch: 17 August)

Event Time Altitude Azimuth Distance (km) Brightness Sun altitude
Exits shadow 00:22:28 15° 101° (E) 1,319 ? -15.3°
Maximum altitude 00:24:03 20° 66° (ENE) 1,117 ? -15.4°
Drops below altitude 10° 00:26:41 10° 16° (NNE) 1,626 ? -15.6°
Sets 00:29:06 0° 0° (N) 2,512 ? -15.7°
